Regional Weather Roundup
Issued by NWS

Home | Current Version | Previous Version | Graphics & Text | Print | Product List | Glossary On
Versions: 1 2 3 4 5 6 7 8 9 10 11 12 13 14 15 16 17 18 19 20 21 22 23 24 25 26 27 28 29 30 31 32 33 34 35 36 37 38 39 40 41 42 43 44 45 46 47 48 49 50
000
ASUS44 KMEG 220000
RWRTN
TENNESSEE HOURLY STATE WEATHER ROUNDUP
NATIONAL WEATHER SERVICE MEMPHIS TN
700 PM CDT MON JUL 21 2014

TNZ002-004-019-021-049-052-054-088>092-220100-
WEST TENNESSEE

CITY           SKY/WX    TMP DP  RH WIND       PRES   REMARKS
MEMPHIS INTL   PTSUNNY   83  65  54 N7        30.05R
NWS MEMPHIS      N/A     79 N/A N/A MISG        N/A
JACKSON        SUNNY     83  68  60 NW3       30.05S
DYERSBURG      SUNNY     82  63  51 CALM      30.06S
UNION CITY     SUNNY     82  68  61 NW3       30.04F
PARIS          MOSUNNY   81  68  65 NW3       30.06S
LEXINGTON      SUNNY     82  70  65 NW6       30.04S
$$

TNZ008-025-027-028-033-062-065-066-220100-
NORTH MIDDLE TENNESSEE

CITY           SKY/WX    TMP DP  RH WIND       PRES   REMARKS
NASHVILLE      MOSUNNY   85  69  58 E3        30.04S
CLARKSVILLE    MOSUNNY   88  64  44 NE7       30.03S
COOKEVILLE     CLEAR     82  73  74 CALM      30.06S
CROSSVILLE     PTCLDY    80  67  64 CALM      30.11F
$$

TNZ061-075-076-078-094-096-097-220100-
SOUTH MIDDLE TENNESSEE

CITY           SKY/WX    TMP DP  RH WIND       PRES   REMARKS
WINCHESTER     CLEAR     75  72  88 CALM      30.06S
SHELBYVILLE    MOSUNNY   82  73  74 CALM      30.06S
$$

TNZ017-018-042-046-047-220100-
NORTHEAST TENNESSEE

CITY           SKY/WX    TMP DP  RH WIND       PRES   REMARKS
TRI CITIES     CLOUDY    78  65  63 SE5       30.12S
ELIZABETHTON   CLEAR     75  64  69 E5        30.14R
$$

TNZ012-013-036-069-073-074-220100-
CENTRAL EAST TENNESSEE

CITY           SKY/WX    TMP DP  RH WIND       PRES   REMARKS
KNOXVILLE      CLOUDY    82  71  69 SE6       30.06R
OAK RIDGE      MOCLDY    85  71  63 CALM      30.07R HX  90
$$

TNZ083-085-099-220100-
SOUTHEAST TENNESSEE

CITY           SKY/WX    TMP DP  RH WIND       PRES   REMARKS
CHATTANOOGA    CLOUDY    82  70  66 SE3       30.05S
$$

SKY/WX REPORTED AS FAIR MEANS FEW OR NO CLOUDS BELOW
12 THOUSAND FEET.




USA.gov is the U.S. government's official web portal to all federal, state and local government web resources and services.